Starlink 1894

operational
NORAD ID: 46744 Int'l Des: 2020-074 Owner: SPXS Country: US Constellation: starlink
LEOCIRCULARSTARLINK_TYPE

About Starlink 1894

Description loading...

Live Position

Loading 3D Globe...

Upcoming Passes

Altitude History

Altitude vs Time

uPlot chart will show altitude changes over time

Two-Line Element Set

1 46744U 20074F 25303.83336806 .01926091 00000-0 74254-1 0 9999
2 46744 53.0560 184.2885 0001686 107.8319 7.8548 15.22504892 5827
Epoch: Oct 30, 2025 • Age: 5 hours

Current Status

Altitude 495.7 km
Velocity 7.62 km/s
Sub-Earth Point 11.79°N, 59.37°W
Launch Date Oct 24, 2020
Age 5 years
Type internet

Technical Details

Classification Payload
Mass 260.00 kg
Dry Mass 248.00 kg
Total Mass 260.00 kg
Length 0.20 m
Diameter 2.80 m
Span 9.00 m
Shape Box + pan
Manufacturer SPXS
Bus Type Starlink
Phase Status In Orbit
Owner/State SPXS/US

Large Constellations

Loading constellations...